Location: Unspecified
(40.4667°N, 0.0000°E)
Time: 21:34:15
(UTC+00:00)

ISS - Pass Details

Date: 28 May 2019
Orbit: 407 x 418 km, 51.6° (Epoch: 25 June)

Event Time Altitude Azimuth Distance (km) Brightness Sun altitude
Rises 22:05:51 0° 312° (NW) 2,360 1.3 -22.8°
Reaches altitude 10° 22:08:08 10° 324° (NW) 1,497 0.1 -23.0°
Maximum altitude 22:11:07 28° 26° (NNE) 814 -2.0 -23.3°
Enters shadow 22:11:14 28° 31° (NNE) 816 -2.1 -23.3°
